GW0486 Weather Reports


time (UTC)temp
F
wind
direction
speed
knots
gust
knots
rain 1hr
in
rain 24hr
in
rain mn
in
humidity
%
barometer
mb
20260508135403 55 189 0.0 4.3 0.00 0.00 0.00 65 1011.9
20260508134503 55 239 0.0 7.0 0.00 0.00 0.00 64 1012.2
20260508133604 56 228 0.0 7.0 0.00 0.00 0.00 62 1011.9
20260508132724 56 214 0.0 1.7 0.00 0.00 0.00 64 1012.1
20260508131803 54 240 0.9 4.3 0.00 0.00 0.00 65 1011.9
20260508130904 54 172 0.0 4.3 0.00 0.00 0.00 71 1012.0
20260508130004 53 161 0.0 1.7 0.00 0.00 0.00 72 1011.9
20260508125403 53 160 0.0 1.7 0.00 0.00 0.00 75 1012.1
20260508124503 52 150 0.0 4.3 0.00 0.00 0.00 77 1011.8
20260508123624 50 103 0.0 1.7 0.00 0.00 0.00 77 1011.6
20260508122703 49 156 0.0 1.7 0.00 0.00 0.00 79 1011.8
20260508121803 49 108 0.0 1.7 0.00 0.00 0.00 79 1011.9
20260508120903 49 119 0.0 1.7 0.00 0.00 0.00 80 1011.6
20260508120009 48 158 0.0 1.7 0.00 0.00 0.00 80 1012.1
20260508115408 47 154 0.0 1.7 0.00 0.00 0.00 81 1011.6
20260508114508 46 0 0.0 0.0 0.00 0.00 0.00 83 1011.5
20260508113608 46 221 0.0 1.7 0.00 0.00 0.00 86 1011.4
20260508112708 44 0 0.0 0.0 0.00 0.00 0.00 89 1011.2
20260508111808 43 0 0.0 0.0 0.00 0.00 0.00 89 1011.4
20260508110908 42 0 0.0 0.0 0.00 0.00 0.00 91 1011.4
20260508110029 42 0 0.0 0.0 0.00 0.00 0.00 92 1011.5
20260508105407 42 0 0.0 0.0 0.00 0.00 0.00 93 1011.2
20260508104508 41 0 0.0 0.0 0.00 0.00 0.00 93 1011.1
20260508103608 41 0 0.0 0.0 0.00 0.00 0.00 93 1011.2
20260508102729 40 0 0.0 0.0 0.00 0.00 0.00 92 1010.8
20260508101808 40 0 0.0 0.0 0.00 0.00 0.00 92 1011.3
20260508100908 40 0 0.0 0.0 0.00 0.00 0.00 92 1010.9
20260508100028 40 0 0.0 0.0 0.00 0.00 0.00 92 1011.0
20260508095407 41 0 0.0 0.0 0.00 0.00 0.00 92 1011.0
20260508094508 41 0 0.0 0.0 0.00 0.00 0.00 92 1011.1
20260508093628 41 0 0.0 0.0 0.00 0.00 0.00 92 1011.4
20260508092707 42 0 0.0 0.0 0.00 0.00 0.00 91 1011.2
20260508091807 41 0 0.0 0.0 0.00 0.00 0.00 91 1011.1
20260508090907 42 0 0.0 0.0 0.00 0.00 0.00 91 1011.2
20260508090009 42 0 0.0 0.0 0.00 0.00 0.00 90 1011.0
20260508085407 42 0 0.0 0.0 0.00 0.00 0.00 90 1010.9
20260508084507 42 0 0.0 0.0 0.00 0.00 0.00 89 1011.3
20260508083607 43 0 0.0 0.0 0.00 0.00 0.00 89 1011.2
20260508082707 43 0 0.0 0.0 0.00 0.00 0.00 88 1011.1
20260508081807 44 0 0.0 0.0 0.00 0.00 0.00 87 1011.1
20260508080907 44 0 0.0 0.0 0.00 0.00 0.00 87 1011.1
20260508080007 44 0 0.0 0.0 0.00 0.00 0.00 87 1011.0
20260508075407 44 0 0.0 0.0 0.00 0.00 0.00 87 1011.1
20260508074528 45 0 0.0 0.0 0.00 0.00 0.00 86 1011.3
20260508073607 46 0 0.0 0.0 0.00 0.00 0.00 87 1011.0
20260508072707 46 0 0.0 0.0 0.00 0.00 0.00 86 1011.0
20260508071807 47 0 0.0 0.0 0.00 0.00 0.00 86 1011.1
20260508070907 47 0 0.0 0.0 0.00 0.00 0.00 87 1011.8
20260508070007 47 0 0.0 0.0 0.00 0.00 0.00 87 1011.8
20260508065407 47 0 0.0 0.0 0.00 0.00 0.00 86 1011.5
20260508064507 47 0 0.0 0.0 0.00 0.00 0.00 86 1011.4
20260508063628 47 0 0.0 0.0 0.00 0.00 0.00 84 1011.8
20260508062728 48 0 0.0 0.0 0.00 0.00 0.00 84 1012.0
20260508061807 48 0 0.0 0.0 0.00 0.00 0.00 83 1012.4
20260508060907 48 0 0.0 0.0 0.00 0.00 0.00 82 1012.5
20260508060007 48 0 0.0 0.0 0.00 0.00 0.00 80 1012.2
20260508055407 48 0 0.0 0.0 0.00 0.00 0.00 80 1012.2
20260508054507 46 0 0.0 0.0 0.00 0.00 0.00 81 1011.6
20260508053607 46 0 0.0 0.0 0.00 0.00 0.00 86 1011.5
20260508052707 46 0 0.0 0.0 0.00 0.00 0.00 87 1011.8
20260508051827 46 0 0.0 0.0 0.00 0.00 0.00 87 1011.5
20260508050907 46 0 0.0 0.0 0.00 0.00 0.00 87 1011.5
20260508050007 46 0 0.0 0.0 0.00 0.00 0.00 86 1011.8
20260508045406 46 0 0.0 0.0 0.00 0.00 0.00 86 1011.5
20260508044527 46 0 0.0 0.0 0.00 0.00 0.00 86 1011.6
20260508043607 46 0 0.0 0.0 0.00 0.00 0.00 86 1012.0
20260508042707 46 0 0.0 0.0 0.00 0.00 0.00 86 1011.9
20260508041806 46 0 0.0 0.0 0.00 0.00 0.00 85 1011.8
20260508040906 46 0 0.0 0.0 0.00 0.00 0.00 85 1011.6
20260508040006 46 0 0.0 0.0 0.00 0.00 0.00 84 1011.8
20260508035406 46 0 0.0 0.0 0.00 0.00 0.00 84 1011.6
20260508034506 46 0 0.0 0.0 0.00 0.00 0.00 84 1011.8
20260508033606 46 0 0.0 0.0 0.00 0.00 0.00 86 1011.9
20260508032706 45 0 0.0 0.0 0.00 0.00 0.00 87 1011.8
20260508031806 44 0 0.0 0.0 0.00 0.00 0.00 86 1011.8
20260508030906 44 0 0.0 0.0 0.00 0.00 0.00 86 1012.0
20260508030006 44 0 0.0 0.0 0.00 0.00 0.00 84 1011.6
20260508025406 44 0 0.0 0.0 0.00 0.00 0.00 84 1011.6
20260508024506 44 0 0.0 0.0 0.00 0.00 0.00 83 1011.8
20260508023606 44 0 0.0 0.0 0.00 0.00 0.00 82 1011.6
20260508022706 44 0 0.0 0.0 0.00 0.00 0.00 81 1011.4
20260508021827 44 0 0.0 0.0 0.00 0.00 0.00 81 1011.3
20260508020907 45 0 0.0 0.0 0.00 0.00 0.00 79 1011.8
20260508020006 45 0 0.0 0.0 0.00 0.00 0.00 79 1011.5
20260508015406 45 0 0.0 0.0 0.00 0.00 0.00 78 1011.5
20260508014506 45 0 0.0 0.0 0.00 0.00 0.00 77 1011.6
20260508013606 46 0 0.0 0.0 0.00 0.00 0.00 74 1011.5
20260508012727 46 0 0.0 0.0 0.00 0.00 0.00 73 1011.5
20260508011806 47 0 0.0 0.0 0.00 0.00 0.00 69 1011.4
20260508010906 48 0 0.0 0.0 0.00 0.00 0.00 67 1011.3
20260508010006 48 0 0.0 0.0 0.00 0.00 0.00 67 1011.1
20260508005406 49 0 0.0 0.0 0.00 0.00 0.00 65 1011.2
20260508004506 50 0 0.0 0.0 0.00 0.00 0.00 63 1011.2
20260508003606 51 0 0.0 0.0 0.00 0.00 0.00 59 1011.2
20260508002705 52 0 0.0 0.0 0.00 0.00 0.00 58 1010.9
20260508001806 53 0 0.0 0.0 0.00 0.00 0.00 54 1010.9
20260508000926 54 0 0.0 0.0 0.00 0.00 0.00 52 1011.1
20260508000026 54 225 0.0 1.7 0.00 0.00 0.00 49 1011.1
20260507235406 55 225 0.0 1.7 0.00 0.00 0.00 50 1010.8
20260507234506 55 316 0.0 1.7 0.00 0.00 0.00 52 1010.7
20260507233605 55 235 0.0 4.3 0.00 0.00 0.00 46 1010.7
20260507232705 56 292 0.9 7.0 0.00 0.00 0.00 47 1010.8
20260507231826 56 279 0.0 4.3 0.00 0.00 0.00 47 1010.6
20260507230926 57 296 0.0 4.3 0.00 0.00 0.00 46 1010.6
20260507230006 57 308 0.9 7.0 0.00 0.00 0.00 46 1010.9
20260507225405 57 299 0.9 7.0 0.00 0.00 0.00 48 1010.6
20260507224526 57 307 0.9 7.0 0.00 0.00 0.00 46 1010.9
20260507223605 57 307 1.7 7.0 0.00 0.00 0.00 50 1011.3
20260507222726 57 296 1.7 8.7 0.00 0.00 0.00 45 1011.2
20260507221805 58 301 1.7 8.7 0.00 0.00 0.00 46 1011.0
20260507220905 58 299 1.7 7.0 0.00 0.00 0.00 45 1011.0
20260507220005 58 294 1.7 7.0 0.00 0.00 0.00 46 1010.9
20260507215405 56 284 1.7 7.0 0.00 0.00 0.00 46 1010.9
20260507214505 57 305 1.7 7.0 0.00 0.00 0.00 47 1010.7
20260507213605 58 297 1.7 8.7 0.00 0.00 0.00 50 1010.8
20260507212705 57 309 0.9 4.3 0.00 0.00 0.00 45 1010.7
20260507211805 58 298 1.7 7.0 0.00 0.00 0.00 44 1010.8
20260507210905 58 296 1.7 7.0 0.00 0.00 0.00 46 1010.6
20260507210005 58 313 1.7 13.0 0.00 0.00 0.00 46 1010.6
20260507205426 58 295 1.7 13.0 0.00 0.00 0.00 44 1010.7
20260507204505 57 306 1.7 7.0 0.00 0.00 0.00 46 1010.8
20260507203605 60 278 2.6 8.7 0.00 0.00 0.00 45 1010.4
20260507202705 59 303 2.6 8.7 0.00 0.00 0.00 46 1010.6
20260507201805 60 310 1.7 8.7 0.00 0.00 0.00 46 1010.8
20260507200926 59 298 2.6 8.7 0.00 0.00 0.00 45 1010.8
20260507200005 60 301 2.6 8.7 0.00 0.00 0.00 45 1010.7
20260507195405 60 307 2.6 11.3 0.00 0.00 0.00 44 1010.7
20260507194505 60 304 2.6 11.3 0.00 0.00 0.00 44 1010.7
20260507193605 60 307 2.6 13.0 0.00 0.00 0.00 46 1011.1
20260507192704 60 303 2.6 11.3 0.00 0.00 0.00 42 1011.0
20260507191805 59 320 1.7 11.3 0.00 0.00 0.00 45 1010.8
20260507190904 60 268 1.7 7.0 0.00 0.00 0.00 49 1011.0
20260507190005 60 283 2.6 11.3 0.00 0.00 0.00 50 1011.0
20260507185405 59 292 2.6 8.7 0.00 0.00 0.00 52 1011.2
20260507184504 59 306 1.7 7.0 0.00 0.00 0.00 51 1011.1
20260507183604 60 304 1.7 11.3 0.00 0.00 0.00 47 1011.0
20260507182704 59 306 1.7 8.7 0.00 0.00 0.00 50 1010.9
20260507181825 60 300 2.6 8.7 0.00 0.00 0.00 55 1011.1
20260507180925 59 302 2.6 11.3 0.00 0.00 0.00 48 1011.0
20260507180004 60 299 1.7 7.0 0.00 0.00 0.00 56 1011.0
20260507175425 60 294 1.7 8.7 0.00 0.00 0.00 52 1010.9
20260507174525 60 278 1.7 11.3 0.00 0.00 0.00 50 1011.0
20260507173604 59 273 1.7 8.7 0.00 0.00 0.00 49 1011.4
20260507172704 58 292 2.6 7.0 0.00 0.00 0.00 51 1011.4
20260507171804 59 285 2.6 8.7 0.00 0.00 0.00 48 1011.5
20260507170904 58 271 1.7 8.7 0.00 0.00 0.00 48 1011.6
20260507170004 59 338 1.7 8.7 0.00 0.00 0.00 50 1011.9
20260507165404 58 300 1.7 8.7 0.00 0.00 0.00 47 1011.8
20260507164504 58 310 1.7 8.7 0.00 0.00 0.00 45 1011.9
20260507163604 58 315 1.7 7.0 0.00 0.00 0.00 47 1012.0
20260507162705 57 312 2.6 8.7 0.00 0.00 0.00 46 1012.0
20260507161804 60 298 0.9 7.0 0.00 0.00 0.00 48 1011.8
20260507160904 58 282 1.7 7.0 0.00 0.00 0.00 49 1011.9
20260507160004 58 276 1.7 7.0 0.00 0.00 0.00 47 1011.9
20260507155404 58 267 1.7 8.7 0.00 0.00 0.00 47 1011.5
20260507154504 58 261 1.7 7.0 0.00 0.00 0.00 46 1011.9
20260507153604 60 248 0.9 7.0 0.00 0.00 0.00 45 1011.6
20260507152704 59 233 0.9 7.0 0.00 0.00 0.00 51 1011.5
20260507151804 57 299 0.9 8.7 0.00 0.00 0.00 54 1011.5
20260507150925 59 167 0.9 4.3 0.00 0.00 0.00 54 1011.4
20260507150004 56 306 0.9 7.0 0.00 0.00 0.00 51 1011.6
20260507145403 56 270 0.9 7.0 0.00 0.00 0.00 53 1012.0
20260507144504 57 271 0.9 4.3 0.00 0.00 0.00 56 1011.8
20260507143625 54 296 0.9 4.3 0.00 0.00 0.00 59 1011.9
20260507142703 53 283 0.9 4.3 0.00 0.00 0.00 59 1011.8
20260507141803 52 308 0.9 7.0 0.00 0.00 0.00 59 1011.9
20260507140904 52 316 0.9 7.0 0.00 0.00 0.00 60 1011.9
20260507140004 51 301 0.9 7.0 0.00 0.00 0.00 62 1011.8